Regional Weather Roundup
Issued by NWS

Home | Current Version | Previous Version | Text Only | Print | Product List | Glossary On
Versions: 1 2 3 4 5 6 7 8 9 10 11 12 13 14 15 16 17 18 19 20 21 22 23 24 25 26 27 28 29 30 31 32 33 34 35 36 37 38 39 40 41 42 43 44 45 46 47 48 49 50
213
ASUS44 KLIX 241011
RWRLA
LOUISIANA WEATHER ROUNDUP
NATIONAL WEATHER SERVICE NEW ORLEANS LA
400 AM CST TUE NOV 24 2020

NOTE: "FAIR" INDICATES FEW OR NO CLOUDS BELOW 12,000 FEET WITH NO
      SIGNIFICANT WEATHER AND/OR OBSTRUCTIONS TO VISIBILITY.
      SKY/WX - SKY CONDITION AND SIGNIFICANT WEATHER.
      TMP - AIR TEMPERATURE.    DP   - DEWPOINT TEMPERATURE.
      RH  - RELATIVE HUMIDITY.  PRES - PRESSURE.
      HX  - HEAT INDEX.         WCI  - WIND CHILL INDEX.

*  THESE STATIONS ARE NOT NWS OR FAA STATIONS AND ARE NOT UNDER
   NWS QUALITY CONTROL.

LAZ040-048-061>063-065-066-069-241100-
SOUTHEAST LOUISIANA

CITY           SKY/WX    TMP DP  RH WIND       PRES   REMARKS
N.O. INTL ARPT CLEAR     53  46  77 E3        30.15F
N.O. LAKEFRONT CLEAR     58  50  75 E14       30.15F
RESERVE*       FAIR      51  49  92 CALM      30.16S
SLIDELL        CLEAR     40  37  89 NE3       30.16F
BATON ROUGE    CLEAR     46  40  79 E7        30.16S
BOOTHVILLE*    SUNNY     61  58  90 CALM      30.15S
BELLE CHASSE*  CLEAR     47  47 100 NE3       30.14F
BOGALUSA*      FAIR      38  36  92 CALM      30.18F
GALLIANO*      SUNNY     56  54  92 CALM      30.14F
NEW ROADS*     NOT AVBL
GONZALES*      NOT AVBL
HAMMOND*       CLEAR     41  39  93 CALM      30.17S
HOUMA*         CLEAR     51  50  95 CALM      30.14F
PORT FOURCHON* NOT AVBL

$$

LAZ041-044-053-054-241100-
SOUTHWEST LOUISIANA

CITY           SKY/WX    TMP DP  RH WIND       PRES   REMARKS
LAKE CHARLES   CLEAR     53  51  93 E6        30.10S
LAFAYETTE      CLEAR     51  47  86 VRB3      30.13F
PATTERSON      CLEAR     51  50  96 NE9       30.13F
SALT POINT       N/A     55  52  89 VRB3      30.10F
NEW IBERIA     PTCLDY    51  50  96 E8        30.12F
CHENAULT AIRPK CLEAR     53  50  90 E6        30.10F

$$

LAZ027-028-241100-
CENTRAL LOUISIANA

CITY           SKY/WX    TMP DP  RH WIND       PRES   REMARKS
FORT POLK      CLEAR     51  45  77 E6        30.13S
ALEXANDRIA INT CLEAR     47  42  83 E5        30.12F
ALEXANDRIA     CLEAR     39  38  96 CALM      30.14S

$$

LAZ001-002-241100-
NORTHWEST LOUISIANA

CITY           SKY/WX    TMP DP  RH WIND       PRES   REMARKS
SHREVEPORT     CLEAR     48  38  68 SE3       30.10F
BARKSDALE AFB  CLEAR     45  38  76 CALM      30.10F
DTN SHREVEPORT CLEAR     48  39  71 CALM      30.11F

$$

LAZ014-016-241100-
NORTHEAST LOUISIANA

CITY           SKY/WX    TMP DP  RH WIND       PRES   REMARKS
MONROE         CLEAR     44  38  79 E3        30.17S
TALLULAH       CLEAR     39  35  86 CALM      30.18S

$$





USA.gov is the U.S. government's official web portal to all federal, state and local government web resources and services.